User: anonymous   Login
Location: Unspecified
(0.0000°N, 0.0000°E)
Time: 18:03:11
(UTC+00:00)
Language:

STARLINK-31854 - Orbit

View from above orbital plane
View from above orbital plane
View from above satellite
View from above satellite

Ground track
Ground track

The orbit is defined by the following mean orbital elements,

1 59671U          26145.15034058 +.00000000 +00000-0 +69686-4 0 00004
2 59671  43.0057 296.9651 0003491 281.4058  78.6402 15.27573178    05
Epoch (UTC): 25 May 2026 03:36:29
Eccentricity: 0.0003491
inclination: 43.0057°
perigee height: 481 km
apogee height: 485 km
right ascension of ascending node: 296.9651°
argument of perigee: 281.4058°
revolutions per day: 15.27573178
mean anomaly at epoch: 78.6402°

The dashed part of the orbit path shows where the satellite is in the earth's shadow,  

DLR